Tenerife, El Salvador

8:18 AM WET en Enero 24, 2019 (GMT +0000)
Tenerife

Tiempo Historia de GCXO - Enero, 2019

Change the Weather History Date:

Viernes, Enero 11, 2019

  Actual Average Record
Temperature  
Temperatura media 54 ° F -  
Temperatura máxima 61 ° F 58 ° F 66 ° F (2016)
Temperatura mínima 48 ° F 49 ° F 44 ° F (1999)
Degree Days  
Grados día de calefacción 10    
Growing Degree Days 4 (Base 50)    
Moisture  
Punto de rocío 46 ° F    
Average Humidity 76    
Maximum Humidity 87    
Minimum Humidity 59    
Precipitación  
Precipitación 0.00 pul - - ()
Presión al nivel del mar  
Presión al nivel del mar 30.11 pul    
Viento  
Velocidad del viento 5 mph ()    
Velocidad máxima del viento 12 mph    
Max Gust Speed -    
Visibilidad 7.9 Millas    
Eventos      
Averages and records for this station are not official NWS values.
T = Trace of Precipitation, MM = Missing Value Source: Averaged Metar Reports

Daily Weather History Graph

Daily Weather History Graph

Search for Another Location

Airport or City:

Astronomía

Jan. 11, 2019 Salida Puesta
Hora real 7:59 AM WET 6:27 PM WET
Crepúsculo civil 7:33 AM WET 6:52 PM WET
Crepúsculo náutico 7:04 AM WET 7:22 PM WET
Crepúsculo astronómico 6:35 AM WET 7:50 PM WET
Luna 11:28 AM WET (1/11) 11:17 PM WET (1/11)
Horas de luz 11h 19m
Horas de luz
10h 28m
Creciente, 24% of the Moon is Illuminated
Ene 11
Creciente
Ene 14
Cuarto creciente
Ene 21
Luna llena
Ene 27
Cuarto menguante
Feb 4
Nueva

Hourly Weather History & Observations

Hora (WET) Temp. Punto de rocío Humedad Presión Visibilidad Wind Dir Velocidad del viento Velocidad de ráfagas Precip Eventos Condiciones
12:00 AM 48.2 ° F 44.6 ° F 87% 30.12 pul 6.2 mi SE 3.5 mph - N/A   Nubes dispersas
12:30 AM 48.2 ° F 44.6 ° F 87% 30.09 pul 6.2 mi SSE 5.8 mph - N/A   Parcialmente nublado
1:00 AM 50.0 ° F 44.6 ° F 82% 30.09 pul 6.2 mi SSE 6.9 mph - N/A   Muy nublado
1:30 AM 50.0 ° F 44.6 ° F 82% 30.09 pul 6.2 mi SSE 5.8 mph - N/A   Nubes dispersas
3:00 AM 49 ° F 45 ° F 80% 30.12 pul 19 mi Sur 4.6 mph - -  
3:00 AM 48.2 ° F 44.6 ° F 87% 30.09 pul 6.2 mi Sur 4.6 mph - N/A   Parcialmente nublado
4:00 AM 48.2 ° F 44.6 ° F 87% 30.09 pul 6.2 mi Sur 4.6 mph - N/A   Nubes dispersas
4:30 AM 48.2 ° F 42.8 ° F 82% 30.06 pul 6.2 mi SSE 5.8 mph - N/A   Parcialmente nublado
5:00 AM 48.2 ° F 44.6 ° F 87% 30.06 pul 6.2 mi SSO 4.6 mph - N/A   Desconocido
5:30 AM 48.2 ° F 44.6 ° F 87% 30.06 pul 6.2 mi Sur 4.6 mph - N/A   Parcialmente nublado
6:30 AM 48.2 ° F 42.8 ° F 82% 30.06 pul 6.2 mi SSO 3.5 mph - N/A   Nubes dispersas
7:00 AM 48.2 ° F 44.6 ° F 87% 30.06 pul 6.2 mi Sur 3.5 mph - N/A   Nubes dispersas
7:30 AM 48.2 ° F 44.6 ° F 87% 30.06 pul 6.2 mi Sur 3.5 mph - N/A   Nubes dispersas
8:00 AM 48.2 ° F 44.6 ° F 87% 30.09 pul 6.2 mi Sur 4.6 mph - N/A   Nubes dispersas
8:30 AM 50.0 ° F 44.6 ° F 82% 30.09 pul 6.2 mi SSO 4.6 mph - N/A   Nubes dispersas
9:00 AM 52 ° F 46 ° F 74% 30.11 pul 19 mi Sur 3.5 mph - -   Muy nublado
9:30 AM 53.6 ° F 46.4 ° F 77% 30.12 pul 6.2 mi SO 3.5 mph - N/A   Muy nublado
10:00 AM 53.6 ° F 46.4 ° F 77% 30.12 pul 6.2 mi Norte 3.5 mph - N/A   Muy nublado
10:30 AM 55.4 ° F 46.4 ° F 72% 30.15 pul 6.2 mi ONO 8.1 mph - N/A   Muy nublado
11:00 AM 55.4 ° F 44.6 ° F 67% 30.15 pul 6.2 mi Oeste 4.6 mph - N/A   Nubes dispersas
11:30 AM 59.0 ° F 46.4 ° F 63% 30.15 pul 6.2 mi NO 3.5 mph - N/A   Muy nublado
12:00 PM 58 ° F 47 ° F 59% 30.12 pul 19 mi ESE 6.9 mph - -   Muy nublado
12:00 PM 57.2 ° F 46.4 ° F 67% 30.15 pul 6.2 mi ESE 6.9 mph - N/A   Muy nublado
12:30 PM 59.0 ° F 46.4 ° F 63% 30.12 pul 6.2 mi Variable 4.6 mph - N/A   Muy nublado
1:00 PM 60.8 ° F 46.4 ° F 59% 30.12 pul 6.2 mi ONO 9.2 mph - N/A   Muy nublado
1:30 PM 59.0 ° F 44.6 ° F 59% 30.12 pul 6.2 mi ONO 5.8 mph - N/A   Muy nublado
2:00 PM 57.2 ° F 44.6 ° F 63% 30.12 pul 6.2 mi ONO 5.8 mph - N/A   Muy nublado
2:30 PM 57.2 ° F 46.4 ° F 67% 30.09 pul 6.2 mi ESE 9.2 mph - N/A   Nubes dispersas
3:00 PM 56 ° F 48 ° F 66% 30.09 pul 19 mi SE 9.2 mph - -   Muy nublado
3:00 PM 57.2 ° F 48.2 ° F 72% 30.09 pul 6.2 mi SE 9.2 mph - N/A   Nubes dispersas
3:30 PM 55.4 ° F 46.4 ° F 72% 30.09 pul 6.2 mi SE 8.1 mph - N/A   Muy nublado
4:00 PM 55.4 ° F 46.4 ° F 72% 30.09 pul 6.2 mi SE 6.9 mph - N/A   Nubes dispersas
4:30 PM 57.2 ° F 46.4 ° F 67% 30.09 pul 6.2 mi SE 8.1 mph - N/A   Nubes dispersas
5:00 PM 55.4 ° F 46.4 ° F 72% 30.09 pul 6.2 mi ESE 8.1 mph - N/A   Nubes dispersas
5:30 PM 55.4 ° F 46.4 ° F 72% 30.09 pul 6.2 mi ESE 8.1 mph - N/A   Muy nublado
6:00 PM 55 ° F 48 ° F 69% 30.11 pul 19 mi SE 6.9 mph - -   Muy nublado
7:00 PM 53.6 ° F 46.4 ° F 77% 30.12 pul 6.2 mi SE 4.6 mph - N/A   Muy nublado
7:30 PM 53.6 ° F 48.2 ° F 82% 30.12 pul 6.2 mi SE 5.8 mph - N/A   Muy nublado
8:00 PM 53.6 ° F 48.2 ° F 82% 30.12 pul 6.2 mi ESE 8.1 mph - N/A   Muy nublado
8:30 PM 53.6 ° F 48.2 ° F 82% 30.12 pul 6.2 mi ESE 9.2 mph - N/A   Muy nublado
9:00 PM 54 ° F 48 ° F 74% 30.13 pul 19 mi ESE 9.2 mph - -  
9:00 PM 53.6 ° F 48.2 ° F 82% 30.12 pul 6.2 mi ESE 8.1 mph - N/A   Muy nublado
10:00 PM 53.6 ° F 46.4 ° F 77% 30.15 pul 6.2 mi SE 3.5 mph - N/A   Muy nublado
10:30 PM 53.6 ° F 46.4 ° F 77% 30.15 pul 6.2 mi SE 3.5 mph - N/A   Muy nublado
11:00 PM 53.6 ° F 46.4 ° F 77% 30.15 pul 6.2 mi ESE 5.8 mph - N/A   Muy nublado
11:30 PM 53.6 ° F 48.2 ° F 82% 30.15 pul 6.2 mi ESE 11.5 mph - N/A   Nublado